Погода в Баткене

Киргизия     40°03′37″N   70°49′10″E
темп.,
°C
ветер,
м/с
пор.,
м/с
влажн.,
%
обл.,
%
осадки,
мм/ч
давл.,
гПа
погр.,
м
10 мая, пн
пн1000:00+17ю3355100 0.5 1014109
03:00+17ссз11579 0.0 101217
06:00+14зсз12639 0.0 101212
09:00+17сз115596 0.0 1012508
12:00+21с2146100 0.0 10101216
15:00+23с214096 0.0 10091686
18:00+21сз3246100 0.2 1009960
21:00+17зюз476377 2.5 1011533
11 мая, вт
вт1100:00+18юз2254100 2.6 101047
03:00+17ссз1256100 0.0 101049
06:00+16зюз1264100 0.1 101269
09:00+17зсз2356100 0.1 1014371
12:00+19сз3447100 0.5 10141282
15:00+20з6631100 0.6 10141411
18:00+19з8830100 0.6 10151068
21:00+16зюз4738100 0.0 1016141
12 мая, ср
ср1200:00+14ю115094 0.0 101512
03:00+12юв015220 0.0 101412
06:00+12ю115120 0.0 101512
09:00+16сз113495 0.0 1015769
12:00+19с222885 0.0 10141743
15:00+21ссз43241 0.0 10122392
18:00+21сз65288 0.0 10121717
21:00+17зсз49373 0.0 1014420
13 мая, чт
чт1300:00+15ююв22450 0.1 101414
03:00+14вюв11483 0.0 101311
06:00+12ююв11510 0.0 101310
09:00+16ссв11400 0.0 1013695
12:00+19ссв32340 0.0 10111580
15:00+21с33273 0.0 10102293
18:00+22ссз342485 0.0 10102469
21:00+18зсз2439100 0.0 1012108
14 мая, пт
пт1400:00+16юв2243100 0.0 101219
03:00+15ююв1147100 0.0 101111
06:00+14юв1149100 0.0 101111
09:00+17с1140100 0.0 1012765
12:00+19с213692 0.0 10111453
15:00+21ссз442890 0.0 10092241
18:00+21зсз3224100 0.0 10101636
21:00+18ю0136100 0.0 101164